Orbital Elements at Epoch 2459200.5 (2020-Dec-17.0) TDB
Reference: JPL 18 (heliocentric ecliptic J2000)
Element | Value | Uncertainty (1-sigma) | Units |
e | .3056124019699016 | 6.5878e-08 | |
a | 2.543761278091534 | 2.3845e-08 | au |
q | 1.766356283855953 | 1.6609e-07 | au |
i | 10.61088987514578 | 1.0788e-05 | deg |
node | 213.9640315316497 | 2.2197e-05 | deg |
peri | 118.0104522903258 | 4.0381e-05 | deg |
M | 56.57779355214726 | 3.2583e-05 | deg |
tp | 2458967.606986283662 (2020-Apr-28.10698628) | 0.00013435 | TDB |
period | 1481.879721247982 4.06 | 2.0837e-05 5.705e-08 | d yr |
n | .2429346962767139 | 3.4159e-09 | deg/d |
Q | 3.321166272327114 | 3.1132e-08 | au |
|
| | Orbit Determination Parameters
Additional Information
|